[[{"header":{"parameterUnit":"m.s-1","parameterCategory":1,"la1":30.2991,"la2":30.254,"lo1":-89.0895,"lo2":-89.0444,"dy":0.0017,"dx":0.0017,"nx":28,"ny":28,"refTime":"2025-11-29T09:00:00:Z","depth":0,"parameterNumber":2,"parameterNumberName":"U-component_of_WINDS"},"data":[0,0,0,0,0,0,0,0,0,0,0,0,0,0,0,0,0,0,0,0,0,0,0,0,0,0,0,0,0,0,0,0,0,0,0,0,0,0,0,0,0,0,0,0,0,0,0,0,0,0,0,0,0,0,0,0,0,0,-5.0687,-5.0688,0,-5.0842,-5.0844,-5.0845,-5.0865,-5.0863,-5.0862,-5.086,-5.1016,-5.1021,-5.1027,0,0,0,0,0,0,0,0,0,0,0,0,0,-5.0405,-5.041,-5.0687,-5.0689,-5.0691,-5.0842,-5.0844,-5.0846,-5.0865,-5.0863,-5.0862,-5.086,-5.1014,-5.1021,-5.1027,0,0,0,0,0,0,0,0,0,0,0,0,0,-5.054,-5.0412,-5.0686,-5.0718,-5.0723,-5.0841,-5.0844,-5.0846,-5.0866,-5.0863,-5.0861,-5.0859,-5.1012,-5.102,-5.1028,-5.1124,0,0,-5.1054,-5.1057,0,0,0,0,0,0,0,0,-5.0532,-5.055,-5.0712,-5.0716,-5.0722,-5.0832,-5.0801,-5.0939,-5.0866,-5.0811,-5.086,-5.0858,-5.0956,-5.0969,-5.1003,-5.1131,-5.1138,-5.1054,-5.1059,-5.1063,-5.1065,0,0,0,0,0,0,0,-5.0523,-5.0544,-5.0748,-5.0714,-5.072,-5.0724,-5.0741,-5.0828,-5.0894,-5.0816,-5.0818,-5.0836,-5.0959,-5.0995,-5.1007,-5.114,-5.1054,-5.1061,-5.1067,-5.107,-5.1354,-5.1357,0,0,0,0,0,0,-5.0508,-5.0536,-5.0743,-5.0753,-5.062,-5.0731,-5.075,-5.0799,-5.0893,-5.0906,-5.0838,-5.0836,-5.0982,-5.0997,-5.1012,-5.1129,-5.1063,-5.1071,-5.1075,-5.1351,-5.1355,-5.1357,0,0,0,0,0,0,-5.0502,-5.0526,-5.0737,-5.0645,-5.0672,-5.0739,-5.0793,-5.0803,-5.0839,-5.091,-5.0922,-5.0863,-5.0981,-5.1001,-5.1096,-5.1134,-5.1074,-5.1082,-5.1348,-5.1352,-5.1356,-5.1363,0,0,0,0,0,0,-5.0494,-5.0524,-5.0561,-5.0646,-5.0677,-5.0818,-5.0795,-5.0807,-5.0854,-5.0853,-5.0936,-5.0948,-5.098,-5.1084,-5.1104,-5.1145,-5.1088,-5.1345,-5.135,-5.1355,-5.136,-5.1367,-5.1373,0,0,0,0,0,-5.0484,-5.0557,-5.0563,-5.0588,-5.0725,-5.0821,-5.0838,-5.0875,-5.0857,-5.0894,-5.094,-5.0945,-5.1128,-5.1093,-5.1117,-5.116,-5.1343,-5.1349,-5.1354,-5.1357,-5.1366,-5.1373,0,0,0,0,0,0,-5.0474,-5.0568,-5.0576,-5.0679,-5.0742,-5.0824,-5.0872,-5.0883,-5.0951,-5.0948,-5.099,-5.1009,-5.1102,-5.1141,-5.1101,-5.1258,-5.1234,-5.1244,-5.1227,-5.1236,-5.1243,-5.1229,-5.1095,0,0,0,0,0,-5.0484,-5.0555,-5.0634,-5.0717,-5.0748,-5.0805,-5.0848,-5.0871,-5.0937,-5.0963,-5.1016,-5.1079,-5.115,-5.1196,-5.1266,-5.1368,-5.1385,-5.1409,-5.1416,-5.1421,-5.1428,-5.1483,-5.1494,-5.1376,-5.1376,-5.1376,0,0,-5.0505,-5.0566,-5.0607,-5.0716,-5.0767,-5.0838,-5.0827,-5.0902,-5.0955,-5.0974,-5.1067,-5.1108,-5.1182,-5.128,-5.1326,-5.1316,-5.1465,-5.1428,-5.1432,-5.1437,-5.149,-5.1501,-5.1511,-5.138,-5.138,-5.1379,0,0,-5.0578,-5.0633,-5.0707,-5.0759,-5.0837,-5.0875,-5.0893,-5.0974,-5.1002,-5.1097,-5.1113,-5.1176,-5.1299,-5.135,-5.1392,-5.1487,-5.1494,-5.1509,-5.1542,-5.1595,-5.1604,-5.1612,-5.1644,-5.1655,-5.1517,-5.1517,-5.1517,0,-5.0594,-5.0702,-5.0743,-5.0819,-5.0865,-5.0889,-5.0963,-5.1012,-5.1108,-5.114,-5.1128,-5.1282,-5.1333,-5.1443,-5.1466,-5.1501,-5.1521,-5.1498,-5.16,-5.1609,-5.1617,-5.1647,-5.1659,-5.1518,-5.1518,-5.1518,-5.1518,0,-5.0716,-5.0791,-5.0842,-5.0935,-5.0988,-5.1063,-5.1115,-5.1163,-5.1183,-5.1222,-5.1317,-5.138,-5.1462,-5.1491,-5.1511,-5.1604,-5.1595,-5.1591,-5.1567,-5.1628,-5.1657,-5.1669,-5.152,-5.152,-5.1519,-5.1519,0,0,-5.0784,-5.0901,-5.0918,-5.0961,-5.105,-5.1108,-5.1185,-5.1266,-5.1306,-5.1373,-5.1436,-5.1541,-5.1538,-5.1586,-5.1612,-5.1659,-5.1727,-5.1649,-5.1652,-5.1659,-5.1831,-5.1831,-5.1843,-5.1734,-5.1737,-5.1739,-5.1824,0,-5.0865,-5.1,-5.1041,-5.1154,-5.1223,-5.1248,-5.1314,-5.1375,-5.1414,-5.1478,-5.1521,-5.1593,-5.1586,-5.1614,-5.1663,-5.1709,-5.1762,-5.1704,-5.1791,-5.1793,-5.1767,-5.1859,-5.1859,-5.1936,-5.1836,-5.1838,-5.1839,0,-5.0976,-5.1046,-5.1166,-5.1247,-5.1277,-5.1336,-5.1414,-5.1475,-5.1545,-5.1571,-5.1625,-5.1648,-5.1727,-5.1702,-5.181,-5.177,-5.1809,-5.1837,-5.1841,-5.1847,-5.1817,-5.1864,-5.1962,-5.1972,-5.1858,-5.1857,-5.1855,0,-5.1009,-5.1134,-5.1222,-5.1258,-5.1355,-5.1395,-5.1437,-5.1505,-5.1552,-5.1621,-5.1651,-5.1728,-5.1769,-5.1828,-5.187,-5.1849,-5.1975,-5.1954,-5.1996,-5.1994,-5.2017,-5.2014,-5.2119,-5.2049,-5.2049,-5.2048,-5.2048,0,-5.1093,-5.1165,-5.1238,-5.1291,-5.1373,-5.1419,-5.1498,-5.1541,-5.1602,-5.1664,-5.1691,-5.1748,-5.1803,-5.1867,-5.1901,-5.1985,-5.2004,-5.2025,-5.2032,-5.202,-5.2017,-5.2043,-5.2037,-5.2052,-5.2051,-5.205,-5.205,0,-5.1142,-5.1194,-5.1291,-5.1375,-5.1398,-5.1454,-5.1526,-5.1579,-5.162,-5.1698,-5.1719,-5.1784,-5.1861,-5.191,-5.2009,-5.2032,-5.2122,-5.213,-5.2098,-5.2101,-5.2139,-5.2133,-5.226,-5.2278,-5.2199,-5.22,-5.2201,0,-5.1189,-5.1246,-5.1337,-5.138,-5.1423,-5.1494,-5.1542,-5.159,-5.1639,-5.1724,-5.1766,-5.1846,-5.1911,-5.2034,-5.2089,-5.2164,-5.2171,-5.2211,-5.2182,-5.2168,-5.2168,-5.2163,-5.2167,-5.2214,-5.2214,-5.2215,-5.2215,0,-5.1268,-5.1291,-5.136,-5.1438,-5.1495,-5.1559,-5.1622,-5.1656,-5.1716,-5.1769,-5.1849,-5.19,-5.2002,-5.2079,-5.216,-5.2203,-5.2218,-5.2225,-5.2238,-5.2224,-5.2202,-5.2211,-5.2106,-5.222,-5.222,-5.222,-5.2219,-5.2219,-5.1316,-5.1366,-5.1438,-5.1514,-5.1567,-5.1626,-5.1679,-5.1728,-5.1796,-5.1882,-5.1908,-5.199,-5.206,-5.217,-5.2215,-5.228,-5.2274,-5.2294,-5.2298,-5.2301,-5.23,-5.2195,-5.2295,-5.2295,-5.2295,-5.2295,-5.2295,0,-5.1393,-5.1441,-5.151,-5.1599,-5.1658,-5.1671,-5.1742,-5.179,-5.1863,-5.1927,-5.1992,-5.2083,-5.216,-5.2222,-5.23,-5.234,-5.2349,-5.2359,-5.2354,-5.2363,-5.2302,-5.2281,-5.235,-5.235,-5.235,-5.235,-5.235,-5.235,-5.1439,-5.1525,-5.1557,-5.1669,-5.1717,-5.1799,-5.1838,-5.1893,-5.1944,-5.2045,-5.2109,-5.215,-5.2213,-5.2296,-5.2366,-5.2383,-5.2409,-5.2416,-5.2434,-5.2374,-5.2368,-5.2362,-5.2342,-5.2423,-5.2423,-5.2489,-5.249,-5.249]},{"header":{"parameterUnit":"m.s-1","parameterCategory":1,"la1":30.2991,"la2":30.254,"lo1":-89.0895,"lo2":-89.0444,"dy":0.0017,"dx":0.0017,"nx":28,"ny":28,"refTime":"2025-11-29T09:00:00:Z","depth":0,"parameterNumber":3,"parameterNumberName":"V-component_of_WINDS"},"data":[0,0,0,0,0,0,0,0,0,0,0,0,0,0,0,0,0,0,0,0,0,0,0,0,0,0,0,0,0,0,0,0,0,0,0,0,0,0,0,0,0,0,0,0,0,0,0,0,0,0,0,0,0,0,0,0,0,0,2.0818,2.0818,0,2.0808,2.0808,2.0808,2.0705,2.0703,2.07,2.0698,2.0688,2.069,2.0692,0,0,0,0,0,0,0,0,0,0,0,0,0,2.0751,2.0752,2.0818,2.0818,2.0818,2.0808,2.0808,2.0808,2.0706,2.0702,2.0699,2.0696,2.0687,2.0689,2.0692,0,0,0,0,0,0,0,0,0,0,0,0,0,2.0764,2.0753,2.0818,2.0766,2.0761,2.0808,2.0808,2.0808,2.0706,2.0702,2.0699,2.0695,2.0686,2.0689,2.0692,2.0789,0,0,2.0702,2.0703,0,0,0,0,0,0,0,0,2.0764,2.0767,2.0774,2.0769,2.0764,2.0754,2.078,2.0802,2.0707,2.0727,2.0698,2.0693,2.0713,2.0714,2.072,2.0789,2.0788,2.0702,2.0704,2.0706,2.0707,0,0,0,0,0,0,0,2.0763,2.0767,2.0814,2.0774,2.0768,2.0743,2.0741,2.0784,2.0742,2.0725,2.0718,2.0718,2.0709,2.0717,2.0719,2.0788,2.0702,2.0705,2.0707,2.0708,2.0937,2.0941,0,0,0,0,0,0,2.0769,2.0767,2.0814,2.0814,2.0754,2.0748,2.0745,2.0761,2.0741,2.0734,2.0721,2.0713,2.0714,2.0716,2.0718,2.0831,2.0706,2.0709,2.071,2.0933,2.0938,2.0943,0,0,0,0,0,0,2.0768,2.0774,2.0815,2.0788,2.0792,2.0753,2.0772,2.0763,2.077,2.0738,2.073,2.0737,2.0711,2.0714,2.0773,2.0829,2.071,2.0713,2.0928,2.0935,2.0941,2.1057,0,0,0,0,0,0,2.0767,2.0775,2.081,2.079,2.0793,2.0869,2.0775,2.0766,2.0776,2.0766,2.075,2.0744,2.0708,2.0768,2.0776,2.0831,2.0715,2.0923,2.0931,2.0939,2.1048,2.1066,2.1082,0,0,0,0,0,2.0764,2.0843,2.0813,2.0819,2.0837,2.0872,2.0874,2.0831,2.0781,2.0817,2.0797,2.0745,2.0822,2.0775,2.0783,2.084,2.0919,2.0929,2.0938,2.104,2.1062,2.1082,0,0,0,0,0,0,2.087,2.0839,2.0805,2.0879,2.088,2.0855,2.0899,2.0856,2.087,2.086,2.0806,2.0803,2.087,2.0861,2.081,2.0934,2.0862,2.0873,2.0937,2.0958,2.0975,2.0975,2.0718,0,0,0,0,0,2.0902,2.0933,2.0905,2.0973,2.0975,2.0938,2.0951,2.0918,2.0916,2.0915,2.0899,2.0899,2.0923,2.094,2.0961,2.1047,2.1042,2.109,2.1107,2.1121,2.1131,2.1177,2.1198,2.0974,2.0974,2.0973,0,0,2.0969,2.0956,2.0978,2.0994,2.099,2.1024,2.0938,2.0977,2.1001,2.0921,2.0975,2.0964,2.0961,2.1034,2.1065,2.1028,2.1193,2.1133,2.1145,2.1147,2.1189,2.121,2.1229,2.098,2.0979,2.0978,0,0,2.1106,2.11,2.1156,2.1155,2.115,2.1125,2.114,2.1122,2.1112,2.1166,2.1106,2.1136,2.1179,2.1179,2.1185,2.1327,2.128,2.1335,2.1424,2.147,2.1487,2.1503,2.1553,2.1572,2.1346,2.1346,2.1346,0,2.1189,2.1237,2.1191,2.1234,2.1243,2.1173,2.1231,2.1232,2.1235,2.1243,2.1202,2.1256,2.1248,2.1321,2.1356,2.1363,2.1378,2.1336,2.1489,2.1504,2.1517,2.1565,2.1584,2.1353,2.1352,2.1351,2.1351,0,2.1339,2.1374,2.142,2.1425,2.144,2.149,2.1452,2.1473,2.144,2.142,2.1477,2.1467,2.1484,2.15,2.1467,2.1568,2.1546,2.1498,2.1424,2.1546,2.159,2.1608,2.1362,2.136,2.1358,2.1356,0,0,2.154,2.1521,2.1539,2.1541,2.1533,2.1559,2.1607,2.1625,2.1644,2.165,2.1689,2.1728,2.1685,2.1692,2.1659,2.1699,2.1813,2.1646,2.1645,2.1677,2.1924,2.196,2.1981,2.1782,2.1786,2.1788,2.1924,0,2.1672,2.1752,2.1714,2.1799,2.1831,2.1767,2.1809,2.1809,2.1793,2.1818,2.18,2.1829,2.1768,2.1772,2.1809,2.1791,2.1861,2.1781,2.1818,2.182,2.182,2.2004,2.2041,2.217,2.1941,2.1944,2.1946,0,2.1836,2.1849,2.1938,2.1926,2.1938,2.1976,2.199,2.2016,2.2015,2.2001,2.201,2.1969,2.2017,2.1946,2.2011,2.1957,2.197,2.1964,2.1968,2.1969,2.1889,2.2009,2.221,2.2229,2.1973,2.1971,2.1969,0,2.1973,2.2013,2.2072,2.2076,2.2063,2.2092,2.2088,2.2084,2.2098,2.2111,2.212,2.2139,2.2149,2.2165,2.213,2.2082,2.2201,2.2126,2.219,2.2191,2.2216,2.2214,2.2421,2.2227,2.2227,2.2226,2.2226,0,2.2124,2.218,2.2133,2.2169,2.2232,2.2188,2.2251,2.224,2.2238,2.2271,2.2218,2.225,2.2203,2.2232,2.2206,2.2264,2.2269,2.2259,2.2251,2.2263,2.2264,2.2269,2.2259,2.2231,2.223,2.2229,2.2228,0,2.2286,2.2257,2.2317,2.2301,2.2298,2.2345,2.2331,2.2365,2.2346,2.2389,2.2396,2.2367,2.2398,2.2366,2.2394,2.2377,2.2455,2.2434,2.2455,2.2449,2.2514,2.2508,2.273,2.2757,2.2547,2.2549,2.2551,0,2.2383,2.2426,2.2415,2.2434,2.2434,2.2464,2.2479,2.2439,2.2456,2.2461,2.2494,2.252,2.2539,2.2592,2.2573,2.2595,2.2574,2.2651,2.2577,2.2588,2.2575,2.2572,2.2576,2.2665,2.2667,2.2669,2.2671,0,2.2559,2.2544,2.2566,2.2586,2.2605,2.2618,2.2626,2.2645,2.2604,2.2626,2.2657,2.2672,2.2703,2.273,2.2747,2.2743,2.2701,2.2695,2.2711,2.2722,2.2732,2.2728,2.2495,2.2689,2.2688,2.2686,2.2685,2.2684,2.2691,2.2727,2.2725,2.2753,2.2756,2.2767,2.2797,2.2783,2.2809,2.283,2.2805,2.2844,2.2845,2.2863,2.2865,2.2895,2.2863,2.2886,2.2891,2.2898,2.2907,2.2729,2.2899,2.2898,2.2897,2.2897,2.2897,0,2.2864,2.2861,2.2887,2.2902,2.2925,2.2884,2.2893,2.2914,2.2949,2.2954,2.2974,2.3011,2.3038,2.3023,2.3046,2.3073,2.3055,2.3081,2.3078,2.3078,2.2935,2.2918,2.3096,2.3096,2.3096,2.3096,2.3096,2.3096,2.2956,2.3014,2.2999,2.3058,2.3055,2.3092,2.3101,2.3111,2.3114,2.3158,2.318,2.3171,2.3168,2.3191,2.3214,2.3209,2.322,2.3253,2.3241,2.3107,2.3088,2.3069,2.3053,2.3256,2.3256,2.3382,2.3383,2.3384]}]]